Main page
METAR-TAF:

METAR-TAF

Airports :

Okeechobee County Airport

Okeechobee, Florida, United States

latitude: 27-15-58N, longitude: 080-51-04W, elevation: 33 ft

Current weather observation

The report was made 21 minutes ago, at 21:15 UTC
Wind 8 mph from the South/Southeast with gusts up to 16 mph
Temperature 82°F
Humidity 45%
Pressure 30.15 in. Hg
Visibility: 10 miles
Clear sky

METAR: KOBE 272115Z AUTO 15007G14KT 10SM CLR 28/15 A3015 RMK AO2

Time: 16:36 (21:36 UTC)


TAF: missing

Weather observations and forecasts of more than 4000 airports (METAR and TAF reports).

The available stations are represented by yellow and red dots on the map.

Hover mouse over dot to see the name of the station.

Then click to see weather observations and forecasts.

To change the map : click on the green buttons with a black cross to zoom in, on the green button with a dash to zoom out, or on the green arrows for adjacent maps.


METAR-TAF: